Flag for Canada Weather past 2 weeks in Longueuil, Quebec, Canada

Now
64 °F

Mild.


Feels Like: 64 °F
Forecast: 54 / 68 °F
Wind: 5 mph from Southwest

Location: Mc Tavish

Current Time: May 5, 2015 at 3:25:46 PM

Latest Report: May 5, 2015 at 2:00 PM


Visibility: N/A

Pressure: 30.22 "Hg

Humidity: 37%

Dew point: 37 °F

Location of LongueuilLocation

Historic Weather in Longueuil — Graph

°F

Longueuil temperature yesterday

Maximum temperature yesterday: 82 °F (at 3:00 PM)
Minimum temperature yesterday: 60 °F (at 7:00 AM)
Average temperature yesterday: 70 °F

Past Weeks' High & Low Weather Summary

 TemperatureHumidityPressure
High82 °F (May 4, 3:00 PM)96% (Apr 21, 9:00 AM)30.27 "Hg (Apr 21, 9:00 AM)
Low33 °F (Apr 25, 8:00 AM)15% (May 2, 4:00 PM)29.48 "Hg (Apr 23, 4:00 AM)
Average52 °F57%29.80 "Hg
* Reported Apr 20 2:00 PM — May 5 2:00 PM, Longueuil, Weather by CustomWeather, © 2015

Note: Actual official high and low records may vary slightly from our data, if they occured in-between our weather recording intervals... More about our weather records

Advertising

Longueuil weather history for previous 24 hours

 ConditionsComfort  
Time TempWeatherWind HumidityBarometerVisibility
2:00 PM
Tue, May 5
64 °FMild.5 mph37%30.22 "HgN/A
1:00 PM63 °FMild.3 mph35%30.24 "HgN/A
12:00 PM62 °FRefreshingly cool.3 mph35%30.25 "HgN/A
11:00 AM59 °FRefreshingly cool.6 mph39%30.27 "HgN/A
10:00 AM59 °FRefreshingly cool.2 mph40%30.26 "HgN/A
9:00 AM56 °FRefreshingly cool.3 mph56%30.26 "HgN/A
8:00 AM55 °FCool.3 mph68%30.25 "HgN/A
7:00 AM54 °FCool.3 mph63%30.23 "HgN/A
6:00 AM54 °FCool.2 mph66%30.21 "HgN/A
5:00 AM53 °FCool.1 mph72%30.17 "HgN/A
4:00 AM56 °FCool.1 mph61%30.14 "HgN/A
3:00 AM56 °FCool.2 mph69%30.11 "HgN/A
2:00 AM59 °FCool.2 mph86%30.07 "HgN/A
1:00 AM61 °FCool.3 mph85%30.05 "HgN/A
12:00 AM61 °FCool.5 mph85%30.02 "HgN/A
11:00 PM
Mon, May 4
61 °FCool.3 mph86%29.98 "HgN/A
10:00 PM61 °FCool.5 mph86%29.97 "HgN/A
9:00 PM63 °FMild.5 mph78%29.97 "HgN/A
8:00 PM65 °FMild.6 mph74%29.97 "HgN/A
7:00 PM69 °FMild.8 mph57%29.97 "HgN/A
6:00 PM76 °FMild.10 mph32%29.93 "HgN/A
5:00 PM79 °FPleasantly warm.10 mph26%29.90 "HgN/A
4:00 PM81 °FPleasantly warm.8 mph24%29.89 "HgN/A
3:00 PM82 °FPleasantly warm.9 mph24%29.91 "HgN/A
Weather by CustomWeather, © 2015

See weather overviewHow to use our weather pages